Dewpoint
44 45 49 56 57 57 58 58 58 59 59 59 59 59 58 57 57 56 58 56 53 54 51 52 50 50 50 49 48 48 47 46
46 47 48 56 57 57 57 57 58 57 57 57 57 56 57 57 57 57 55 53 51 51 50 50 49 47 46 49 49 47 47 46
45 49 49 53 57 57 57 57 57 57 57 56 56 56 57 57 57 54 52 52 51 50 51 49 49 52 50 49 46 47 47 47
45 49 50 52 55 57 57 56 57 56 56 56 56 56 56 55 55 54 52 51 50 50 51 52 51 53 50 50 49 49 45 45
45 48 51 51 53 57 57 56 56 56 56 55 55 54 53 51 54 55 53 55 51 50 52 52 51 51 53 54 53 53 50 46
44 47 50 52 53 55 56 56 56 56 56 55 55 54 53 50 53 54 53 54 56 52 52 53 52 51 52 54 55 54 54 53
41 47 49 52 52 55 56 56 55 56 56 56 55 54 53 50 51 50 50 52 56 56 53 53 54 55 53 54 55 56 55 55
40 46 48 50 52 54 55 55 55 56 55 55 55 55 54 52 51 50 49 49 52 56 55 54 55 55 55 56 56 56 57 55
37 43 47 49 51 55 54 54 54 55 56 55 55 55 54 53 51 50 50 49 51 53 55 54 55 55 55 57 57 57 56 56
36 42 47 48 51 52 54 53 54 55 54 56 55 55 54 54 53 52 51 51 52 55 56 55 55 55 56 57 57 56 56 56
36 39 46 48 51 52 54 53 52 55 55 55 55 55 55 55 54 54 53 52 51 52 55 56 55 54 56 57 57 56 55 55
30 36 41 48 50 51 53 53 51 52 55 55 55 54 54 55 54 54 54 53 53 52 52 53 54 56 56 56 55 55 55 54
30 32 39 42 49 50 53 53 52 51 53 56 55 55 55 55 55 54 54 54 54 53 52 52 53 53 54 54 54 54 54 53
30 31 38 41 45 48 51 53 53 51 51 54 56 56 56 55 55 55 55 54 55 54 52 51 51 52 53 53 53 53 52 52
34 37 39 39 43 47 49 52 53 53 51 51 54 56 56 56 56 56 56 56 55 54 54 53 52 51 51 51 51 51 51 52
36 39 40 41 41 41 45 49 53 53 52 51 50 54 56 56 56 56 56 56 56 56 55 54 53 53 51 51 51 51 52 52
38 39 40 41 41 42 42 43 49 53 53 52 52 51 53 55 55 56 56 56 56 56 56 55 55 54 52 51 52 53 52 52
39 40 41 42 43 44 43 44 43 46 52 53 53 52 52 53 54 55 55 55 56 56 55 55 55 55 53 51 50 52 52 52
38 39 40 42 45 46 47 47 47 42 42 50 52 53 53 53 54 54 54 55 55 55 55 55 55 54 53 52 50 51 52 52
Wind_Speed
15 12 13 18 17 12 14 13 13 12 10 8 12 11 20 21 21 21 18 17 11 10 9 9 11 15 12 15 12 11 14 13
19 15 12 22 17 15 15 13 14 14 13 11 16 16 17 21 16 17 20 14 11 6 8 8 8 8 11 11 8 11 9 12
21 19 15 16 21 17 16 17 17 15 13 11 8 20 14 17 8 16 14 16 13 7 8 11 10 4 11 13 11 7 8 11
24 22 18 16 20 20 17 18 19 17 17 14 12 13 14 14 7 15 16 20 18 16 14 13 16 11 12 14 14 12 13 11
27 24 22 19 20 21 20 19 21 18 20 19 22 18 22 22 15 15 17 18 20 18 15 17 17 14 9 16 15 12 12 15
26 27 23 21 18 24 22 20 22 21 21 21 22 20 19 22 15 14 16 21 17 18 17 16 17 15 16 21 18 17 14 13
21 27 25 23 21 23 24 24 23 24 24 22 23 24 23 23 19 20 17 14 17 17 18 15 17 17 18 16 18 17 18 15
19 27 25 24 25 25 24 25 24 24 26 25 26 23 25 26 27 24 24 21 18 16 19 18 16 16 17 17 17 18 17 19
15 23 26 24 26 26 25 25 25 25 26 27 25 26 22 21 27 25 24 24 21 19 21 21 15 19 22 18 16 16 17 17
11 15 24 25 26 26 26 26 27 27 29 26 27 27 26 25 25 27 26 25 20 17 19 21 22 20 23 20 19 19 17 18
16 15 21 24 25 26 25 25 25 28 28 27 26 28 27 26 27 28 28 27 28 24 20 20 25 28 27 23 21 21 22 21
6 7 18 25 26 26 27 25 26 26 29 28 27 29 29 28 29 29 31 29 29 29 28 28 26 24 23 22 23 22 23 22
8 4 3 7 22 23 26 25 23 24 27 29 30 28 29 29 30 29 28 31 29 31 32 30 31 31 28 28 28 26 26 25
18 17 4 6 12 18 21 26 26 22 24 28 29 31 33 34 34 32 30 30 29 30 31 33 32 31 31 33 32 30 29 29
22 24 25 26 2 13 16 20 24 25 23 25 30 32 34 35 32 32 32 33 33 32 33 34 35 32 32 33 32 32 31 31
18 20 21 22 23 21 9 18 22 25 26 26 30 28 29 28 30 32 31 32 31 32 31 33 31 31 32 34 32 31 31 31
15 16 19 22 25 25 25 23 17 22 27 29 27 26 27 30 29 29 28 32 33 31 33 33 32 32 34 36 33 29 30 30
17 18 19 19 21 24 25 26 25 16 22 27 27 26 28 30 30 28 30 32 29 33 33 31 32 32 32 33 35 30 28 25
16 17 18 19 20 24 28 27 27 25 20 23 25 28 29 29 28 31 32 31 31 30 30 30 29 29 27 32 31 29 27 25
Wind_Direction
188 171 164 155 156 173 156 155 157 137 129 130 159 163 154 151 153 161 182 213 165 171 126 162 135 152 147 153 175 178 167 177
167 163 153 144 158 174 165 154 152 141 139 134 133 131 129 140 163 180 172 163 164 149 127 134 111 144 155 155 170 180 184 196
157 157 171 169 162 174 170 161 161 154 149 147 124 138 123 137 155 161 155 153 163 171 163 158 179 194 167 166 171 191 196 194
161 166 180 179 163 165 170 165 165 158 159 144 123 125 137 158 163 168 170 164 170 190 184 172 189 197 186 171 182 199 204 198
164 171 176 186 171 161 166 171 169 167 164 163 158 166 168 179 175 166 179 168 182 191 197 192 190 196 201 182 188 207 201 194
167 171 176 179 181 163 166 179 177 173 172 176 174 177 179 182 185 188 186 187 185 186 207 203 190 200 216 197 188 200 219 226
167 165 170 173 178 163 165 177 185 178 179 176 181 183 180 185 188 197 207 205 188 194 206 214 207 191 207 213 192 195 211 230
168 161 170 176 177 170 167 177 187 183 181 183 188 186 186 193 192 196 204 213 204 197 208 221 216 201 213 208 200 203 205 217
173 170 171 179 176 170 176 179 188 190 188 187 187 192 191 193 197 200 205 213 216 211 207 219 220 210 214 212 211 206 214 221
171 176 172 178 178 180 181 183 187 192 198 190 191 192 192 193 199 202 207 210 218 216 213 212 222 218 214 212 216 215 216 220
177 181 176 179 178 180 182 187 195 188 194 198 196 197 199 195 201 202 206 210 215 214 218 221 220 222 218 215 217 216 214 219
13 198 184 180 178 179 184 191 194 193 188 197 201 203 204 200 205 205 205 209 208 211 212 218 224 223 219 218 221 220 219 222
94 37 39 194 176 180 182 190 204 198 190 192 202 203 208 207 211 210 208 209 209 210 213 215 216 219 221 221 223 223 221 222
5 12 116 173 180 188 191 189 196 211 199 195 197 203 204 210 212 212 210 216 213 214 215 217 219 217 219 221 222 224 226 227
18 8 4 5 293 195 203 197 197 200 217 207 203 205 209 212 211 211 214 213 215 215 215 218 221 222 219 221 224 227 230 232
14 1 352 352 353 355 314 215 197 201 209 219 222 211 213 214 215 216 214 216 218 218 219 221 223 221 226 228 226 228 230 234
8 359 4 356 347 342 339 341 225 199 207 219 223 221 215 219 219 217 215 217 219 219 221 222 222 225 227 225 223 228 232 235
16 8 7 353 343 333 331 327 323 290 213 217 223 222 221 221 219 218 220 221 219 221 224 224 226 228 228 225 225 228 235 236
17 15 359 356 355 356 343 335 326 314 287 231 224 224 227 226 217 218 222 221 219 221 223 223 227 230 229 227 223 223 230 233